TimeAST,TemperatureF,Dew PointF,Humidity,Sea Level PressureIn,VisibilityMPH,Wind Direction,Wind SpeedMPH,Gust SpeedMPH,PrecipitationIn,Events,Conditions,WindDirDegrees,DateUTC
12:00 AM,75.2,75.2,100,29.92,6.2,Calm,Calm,-,N/A,,Mostly Cloudy,0,2013-06-29 04:00:00
1:00 AM,75.2,73.4,94,29.89,6.2,Calm,Calm,-,N/A,,Mostly Cloudy,0,2013-06-29 05:00:00
2:00 AM,76,73,89,29.89,12,Calm,Calm,,,,Partly Cloudy,,2013-06-29 06:00:00
2:00 AM,77.0,73.4,89,29.89,6.2,Calm,Calm,-,N/A,,Mostly Cloudy,0,2013-06-29 06:00:00
3:00 AM,77.0,73.4,89,29.89,6.2,Calm,Calm,-,N/A,,Mostly Cloudy,0,2013-06-29 07:00:00
4:00 AM,77.0,73.4,89,29.89,6.2,Calm,Calm,-,N/A,,Mostly Cloudy,0,2013-06-29 08:00:00
5:00 AM,77,74,87,29.90,12,Calm,Calm,,,,Mostly Cloudy,,2013-06-29 09:00:00
5:00 AM,77.0,73.4,89,29.89,6.2,Calm,Calm,-,N/A,,Mostly Cloudy,0,2013-06-29 09:00:00
6:00 AM,77.0,73.4,89,29.89,6.2,Calm,Calm,-,N/A,,Mostly Cloudy,0,2013-06-29 10:00:00
7:00 AM,77.0,73.4,89,29.92,6.2,Calm,Calm,-,N/A,,Mostly Cloudy,0,2013-06-29 11:00:00
8:00 AM,81,75,78,29.94,11,Calm,Calm,,,,Partly Cloudy,,2013-06-29 12:00:00
8:00 AM,80.6,75.2,84,29.92,6.2,Calm,Calm,-,N/A,,Mostly Cloudy,0,2013-06-29 12:00:00
10:00 AM,86.0,75.2,70,29.92,6.2,ESE,13.8,-,N/A,,Mostly Cloudy,110,2013-06-29 14:00:00
11:00 AM,87,74,57,29.94,12,ESE,11.5,,,,Haze,120,2013-06-29 15:00:00
11:00 AM,87.8,73.4,62,29.92,6.2,ESE,11.5,-,N/A,,Mostly Cloudy,120,2013-06-29 15:00:00
12:00 PM,89.6,75.2,62,29.92,6.2,ESE,13.8,-,N/A,,Mostly Cloudy,120,2013-06-29 16:00:00
1:00 PM,87.8,73.4,62,29.92,6.2,ESE,13.8,-,N/A,,Mostly Cloudy,120,2013-06-29 17:00:00
2:00 PM,84,77,75,29.91,9,ESE,8.1,,,,Mostly Cloudy,120,2013-06-29 18:00:00
2:00 PM,84.2,77.0,79,29.89,6.2,ESE,8.1,-,N/A,,Mostly Cloudy,120,2013-06-29 18:00:00
3:00 PM,84.2,77.0,79,29.89,6.2,ESE,9.2,-,N/A,Rain,Light Rain Showers,110,2013-06-29 19:00:00
4:00 PM,78.8,75.2,89,29.86,6.2,ESE,8.1,-,N/A,,Mostly Cloudy,120,2013-06-29 20:00:00
4:37 PM,78.8,75.2,89,29.86,5.0,East,17.3,-,N/A,Rain,Light Rain Showers,100,2013-06-29 20:37:00
5:00 PM,78,77,96,29.89,5,ESE,8.1,,,Rain,Light Rain Showers,110,2013-06-29 21:00:00
5:00 PM,78.8,77.0,94,29.89,5.0,ESE,8.1,-,N/A,Rain,Light Rain Showers,110,2013-06-29 21:00:00
6:00 PM,78.8,77.0,94,29.89,6.2,ESE,8.1,-,N/A,,Scattered Clouds,110,2013-06-29 22:00:00
7:00 PM,80.6,77.0,89,29.89,6.2,East,9.2,-,N/A,,Scattered Clouds,100,2013-06-29 23:00:00
8:00 PM,79,77,91,29.91,12,Calm,Calm,,,,Partly Cloudy,,2013-06-30 00:00:00
8:00 PM,78.8,77.0,94,29.89,6.2,Calm,Calm,-,N/A,,Scattered Clouds,0,2013-06-30 00:00:00
9:00 PM,78.8,77.0,94,29.92,6.2,Calm,Calm,-,N/A,,Scattered Clouds,0,2013-06-30 01:00:00
10:00 PM,78.8,75.2,89,29.92,6.2,East,3.5,-,N/A,,Mostly Cloudy,100,2013-06-30 02:00:00
11:00 PM,79,76,87,29.95,12,Calm,Calm,,,,Partly Cloudy,,2013-06-30 03:00:00
11:00 PM,78.8,75.2,89,29.95,6.2,Calm,Calm,-,N/A,,Mostly Cloudy,0,2013-06-30 03:00:00